H1 CPF 2 NER 2024 3 17 9 077 01 glonass127 H2 1106403 9127 37869 2024 3 17 0 0 0 2024 3 20 23 45 0 900 1 1 0 0 0 1 H9 10 0 60386 0.00000 0 -10622223.909 -2167407.462 -23023063.492 10 0 60386 900.00000 0 -9946022.466 -4936895.515 -22900459.714 10 0 60386 1800.00000 0 -9481909.072 -7705922.774 -22330121.292 10 0 60386 2700.00000 0 -9232373.044 -10404217.897 -21323385.337 10 0 60386 3600.00000 0 -9187512.548 -12963144.800 -19900150.026 10 0 60386 4500.00000 0 -9325578.292 -15318354.779 -18088462.338 10 0 60386 5400.00000 0 -9614036.388 -17412260.632 -15923943.216 10 0 60386 6300.00000 0 -10011102.462 -19196229.146 -13449063.382 10 0 60386 7200.00000 0 -10467679.014 -20632400.932 -10712286.193 10 0 60386 8100.00000 0 -10929611.087 -21695063.097 -7767096.466 10 0 60386 9000.00000 0 -11340162.222 -22371519.782 -4670936.306 10 0 60386 9900.00000 0 -11642604.012 -22662427.337 -1484070.555 10 0 60386 10800.00000 0 -11782808.584 -22581583.710 1731594.614 10 0 60386 11700.00000 0 -11711734.153 -22155184.763 4913716.049 10 0 60386 12600.00000 0 -11387699.230 -21420582.258 8000717.144 10 0 60386 13500.00000 0 -10778350.830 -20424598.705 10932967.537 10 0 60386 14400.00000 0 -9862245.526 -19221471.982 13653917.140 10 0 60386 15300.00000 0 -8629978.853 -17870517.085 16111164.145 10 0 60386 16200.00000 0 -7084817.538 -16433603.111 18257438.527 10 0 60386 17100.00000 0 -5242809.541 -14972550.047 20051484.619 10 0 60386 18000.00000 0 -3132368.091 -13546552.409 21458828.390 10 0 60386 18900.00000 0 -793347.006 -12209734.763 22452417.313 10 0 60386 19800.00000 0 1724355.314 -11008938.282 23013122.899 10 0 60386 20700.00000 0 4362607.177 -9981827.814 23130098.075 10 0 60386 21600.00000 0 7057197.831 -9155395.840 22800983.756 10 0 60386 22500.00000 0 9740248.775 -8544923.863 22031961.047 10 0 60386 23400.00000 0 12342785.852 -8153443.557 20837647.629 10 0 60386 24300.00000 0 14797369.194 -7971720.139 19240839.055 10 0 60386 25200.00000 0 17040675.166 -7978759.620 17272097.911 10 0 60386 26100.00000 0 19015925.611 -8142820.443 14969196.227 10 0 60386 27000.00000 0 20675064.965 -8422889.440 12376418.960 10 0 60386 27900.00000 0 21980595.089 -8770562.678 9543738.997 10 0 60386 28800.00000 0 22906990.607 -9132254.509 6525876.851 10 0 60386 29700.00000 0 23441634.084 -9451643.663 3381260.817 10 0 60386 30600.00000 0 23585229.569 -9672254.320 170905.997 10 0 60386 31500.00000 0 23351674.453 -9740063.183 -3042767.024 10 0 60386 32400.00000 0 22767392.299 -9606021.292 -6197151.089 10 0 60386 33300.00000 0 21870152.249 -9228381.804 -9230684.573 10 0 60386 34200.00000 0 20707422.922 -8574732.169 -12084071.262 10 0 60386 35100.00000 0 19334329.156 -7623641.060 -14701462.245 10 0 60386 36000.00000 0 17811297.686 -6365846.432 -17031574.383 10 0 60386 36900.00000 0 16201491.890 -4804930.556 -19028720.901 10 0 60386 37800.00000 0 14568145.379 -2957450.016 -20653731.472 10 0 60386 38700.00000 0 12971909.004 -852512.327 -21874741.486 10 0 60386 39600.00000 0 11468325.467 1469184.945 -22667833.154 10 0 60386 40500.00000 0 10105540.211 3956813.157 -23017514.509 10 0 60386 41400.00000 0 8922346.832 6551308.465 -22917026.114 10 0 60386 42300.00000 0 7946650.504 9187624.263 -22368469.246 10 0 60386 43200.00000 0 7194414.362 11797244.486 -21382753.425 10 0 60386 44100.00000 0 6669132.514 14310850.857 -19979365.207 10 0 60386 45000.00000 0 6361850.229 16661030.786 -18185964.160 10 0 60386 45900.00000 0 6251727.931 18784911.240 -16037815.676 10 0 60386 46800.00000 0 6307122.093 20626607.627 -13577073.722 10 0 60386 47700.00000 0 6487133.939 22139385.175 -10851929.759 10 0 60386 48600.00000 0 6743557.041 23287443.222 -7915646.656 10 0 60386 49500.00000 0 7023138.257 24047249.497 -4825498.552 10 0 60386 50400.00000 0 7270053.790 24408371.053 -1641639.189 10 0 60386 51300.00000 0 7428493.756 24373770.249 1574077.734 10 0 60386 52200.00000 0 7445245.012 23959556.905 4759302.338 10 0 60386 53100.00000 0 7272163.052 23194210.541 7852392.663 10 0 60386 54000.00000 0 6868429.372 22117308.508 10793596.034 10 0 60386 54900.00000 0 6202500.608 20777815.838 13526185.816 10 0 60386 55800.00000 0 5253669.189 19232010.083 15997533.092 10 0 60386 56700.00000 0 4013171.887 17541128.566 18160094.716 10 0 60386 57600.00000 0 2484801.477 15768835.871 19972301.189 10 0 60386 58500.00000 0 684997.075 13978615.850 21399329.879 10 0 60386 59400.00000 0 -1357590.206 12231194.605 22413751.376 10 0 60386 60300.00000 0 -3603038.740 10582098.956 22996038.934 10 0 60386 61200.00000 0 -6001567.298 9079449.046 23134933.083 10 0 60386 62100.00000 0 -8495359.196 7762074.020 22827655.668 10 0 60386 63000.00000 0 -11020727.099 6658026.779 22079969.634 10 0 60386 63900.00000 0 -13510532.231 5783557.923 20906083.029 10 0 60386 64800.00000 0 -15896761.315 5142590.864 19328397.849 10 0 60386 65700.00000 0 -18113157.795 4726720.141 17377106.569 10 0 60386 66600.00000 0 -20097800.847 4515734.081 15089641.628 10 0 60386 67500.00000 0 -21795526.955 4478641.711 12509985.559 10 0 60386 68400.00000 0 -23160094.124 4575163.083 9687852.102 10 0 60386 69300.00000 0 -24155998.232 4757622.699 6677751.277 10 0 60386 70200.00000 0 -24759864.342 4973168.407 3537954.121 10 0 60386 71100.00000 0 -24961352.572 5166223.650 329375.283 10 0 60386 72000.00000 0 -24763537.749 5281070.095 -2885605.805 10 0 60386 72900.00000 0 -24182743.891 5264450.995 -6044362.522 10 0 60386 73800.00000 0 -23247837.546 5068083.608 -9085253.109 10 0 60386 74700.00000 0 -21999007.274 4650971.785 -11948841.774 10 0 60386 75600.00000 0 -20486078.958 3981417.552 -14579083.062 10 0 60386 76500.00000 0 -18766437.067 3038642.729 -16924444.069 10 0 60386 77400.00000 0 -16902639.618 1813948.122 -18938939.922 10 0 60386 78300.00000 0 -14959828.280 311357.542 -20583059.826 10 0 60386 79200.00000 0 -13003044.389 -1452283.707 -21824563.222 10 0 60386 80100.00000 0 -11094565.952 -3447762.466 -22639128.575 10 0 60386 81000.00000 0 -9291379.891 -5634485.860 -23010840.647 10 0 60386 81900.00000 0 -7642897.748 -7961962.989 -22932505.895 10 0 60386 82800.00000 0 -6189012.354 -10371717.515 -22405789.545 10 0 60386 83700.00000 0 -4958577.709 -12799549.843 -21441172.012 10 0 60386 84600.00000 0 -3968375.673 -15178052.458 -20057726.382 10 0 60386 85500.00000 0 -3222611.573 -17439271.210 -18282722.683 10 0 60387 0.00000 0 -2712957.702 -19517399.206 -16151068.633 10 0 60387 900.00000 0 -2419139.576 -21351390.290 -13704598.588 10 0 60387 1800.00000 0 -2310037.281 -22887379.213 -10991229.751 10 0 60387 2700.00000 0 -2345250.738 -24080810.984 -8064000.495 10 0 60387 3600.00000 0 -2477059.828 -24898188.399 -4980014.464 10 0 60387 4500.00000 0 -2652692.961 -25318367.509 -1799311.851 10 0 60387 5400.00000 0 -2816805.707 -25333349.164 1416308.508 10 0 60387 6300.00000 0 -2914062.972 -24948536.536 4604492.325 10 0 60387 7200.00000 0 -2891714.893 -24182451.135 7703534.528 10 0 60387 8100.00000 0 -2702057.859 -23065922.376 10653562.309 10 0 60387 9000.00000 0 -2304677.865 -21640787.367 13397674.572 10 0 60387 9900.00000 0 -1668383.300 -19958157.274 15883017.268 10 0 60387 10800.00000 0 -772747.815 -18076323.773 18061775.936 10 0 60387 11700.00000 0 390799.618 -16058392.936 19892068.836 10 0 60387 12600.00000 0 1818381.558 -13969744.160 21338726.060 10 0 60387 13500.00000 0 3493599.769 -11875417.966 22373942.338 10 0 60387 14400.00000 0 5387986.662 -9837538.635 22977793.371 10 0 60387 15300.00000 0 7461962.613 -7912875.765 23138607.661 10 0 60387 16200.00000 0 9666261.182 -6150642.870 22853188.022 10 0 60387 17100.00000 0 11943765.714 -4590621.637 22126878.973 10 0 60387 18000.00000 0 14231684.345 -3261687.487 20973478.379 10 0 60387 18900.00000 0 16463976.685 -2180796.287 19414993.847 10 0 60387 19800.00000 0 18573934.955 -1352473.846 17481246.643 10 0 60387 20700.00000 0 20496815.378 -768829.880 15209328.240 10 0 60387 21600.00000 0 22172412.712 -410097.082 12642917.089 10 0 60387 22500.00000 0 23547472.055 -245674.551 9831465.812 10 0 60387 23400.00000 0 24577837.482 -235633.935 6829271.664 10 0 60387 24300.00000 0 25230246.827 -332627.061 3694445.837 10 0 60387 25200.00000 0 25483695.563 -484116.400 487799.684 10 0 60387 26100.00000 0 25330309.826 -634835.251 -2728331.550 10 0 60387 27000.00000 0 24775688.797 -729373.794 -5891304.916 10 0 60387 27900.00000 0 23838698.742 -714780.689 -8939401.632 10 0 60387 28800.00000 0 22550724.355 -543068.140 -11813049.294 10 0 60387 29700.00000 0 20954406.520 -173511.553 -14456008.656 10 0 60387 30600.00000 0 19101918.003 425357.021 -16816499.500 10 0 60387 31500.00000 0 17052849.044 1274149.811 -18848240.987 10 0 60387 32400.00000 0 14871792.143 2381489.967 -20511383.648 10 0 60387 33300.00000 0 12625728.753 3743395.226 -21773312.459 10 0 60387 34200.00000 0 10381329.516 5343207.355 -22609303.294 10 0 60387 35100.00000 0 8202283.506 7152072.266 -23003018.481 10 0 60387 36000.00000 0 6146770.640 9129951.571 -22946830.872 10 0 60387 36900.00000 0 4265184.993 11227123.034 -22441969.791 10 0 60387 37800.00000 0 2598205.562 13386106.079 -21498486.324 10 0 60387 38700.00000 0 1175295.510 15543930.055 -20135039.482 10 0 60387 39600.00000 0 13692.018 17634648.223 -18378508.766 10 0 60387 40500.00000 0 -882072.735 19591990.103 -16263442.438 10 0 60387 41400.00000 0 -1520102.167 21352039.226 -13831354.288 10 0 60387 42300.00000 0 -1920523.863 22855822.765 -11129884.834 10 0 60387 43200.00000 0 -2114365.842 24051703.916 -8211845.572 10 0 60387 44100.00000 0 -2141971.901 24897476.976 -5134166.999 10 0 60387 45000.00000 0 -2051026.692 25362078.395 -1956772.879 10 0 60387 45900.00000 0 -1894277.146 25426844.005 1258595.838 10 0 60387 46800.00000 0 -1727048.896 25086262.242 4449583.563 10 0 60387 47700.00000 0 -1604664.063 24348194.753 7554425.225 10 0 60387 48600.00000 0 -1579869.852 23233558.134 10513130.920 10 0 60387 49500.00000 0 -1700385.970 21775482.868 13268627.998 10 0 60387 50400.00000 0 -2006672.883 20017986.822 15767839.999 10 0 60387 51300.00000 0 -2530013.060 18014220.049 17962683.656 10 0 60387 52200.00000 0 -3290983.776 15824354.495 19810967.246 10 0 60387 53100.00000 0 -4298383.651 13513205.847 21277175.580 10 0 60387 54000.00000 0 -5548656.442 11147684.824 22333129.228 10 0 60387 54900.00000 0 -7025835.491 8794181.310 22958507.694 10 0 60387 55800.00000 0 -8702011.346 6515986.943 23141228.448 10 0 60387 56700.00000 0 -10538304.298 4370859.807 22877675.842 10 0 60387 57600.00000 0 -12486303.486 2408829.047 22172776.066 10 0 60387 58500.00000 0 -14489915.594 670327.791 21039916.375 10 0 60387 59400.00000 0 -16487549.641 -815270.217 19500709.035 10 0 60387 60300.00000 0 -18414550.539 -2030650.600 17584602.591 10 0 60387 61200.00000 0 -20205783.427 -2971053.570 15328345.521 10 0 60387 62100.00000 0 -21798263.850 -3644243.077 12775309.688 10 0 60387 63000.00000 0 -23133725.951 -4069949.745 9974683.682 10 0 60387 63900.00000 0 -24161022.149 -4278809.053 6980548.773 10 0 60387 64800.00000 0 -24838253.498 -4310837.253 3850852.869 10 0 60387 65700.00000 0 -25134539.956 -4213507.264 646300.464 10 0 60387 66600.00000 0 -25031353.757 -4039504.243 -2570820.986 10 0 60387 67500.00000 0 -24523356.723 -3844255.008 -5737855.771 10 0 60387 68400.00000 0 -23618702.770 -3683336.061 -8793011.575 10 0 60387 69300.00000 0 -22338789.430 -3609871.242 -11676582.719 10 0 60387 70200.00000 0 -20717465.805 -3672031.427 -14332139.286 10 0 60387 71100.00000 0 -18799727.949 -3910745.149 -16707656.570 10 0 60387 72000.00000 0 -16639955.130 -4357720.544 -18756560.194 10 0 60387 72900.00000 0 -14299760.754 -5033865.918 -20438663.961 10 0 60387 73800.00000 0 -11845548.705 -5948179.191 -21720979.739 10 0 60387 74700.00000 0 -9345879.058 -7097156.046 -22578381.544 10 0 60387 75600.00000 0 -6868755.453 -8464744.000 -22994109.355 10 0 60387 76500.00000 0 -4478949.835 -10022845.624 -22960101.877 10 0 60387 77400.00000 0 -2235478.529 -11732350.114 -22477151.425 10 0 60387 78300.00000 0 -189336.719 -13544649.249 -21554878.163 10 0 60387 79200.00000 0 1618413.194 -15403572.722 -20211525.033 10 0 60387 80100.00000 0 3158119.568 -17247659.668 -18473578.700 10 0 60387 81000.00000 0 4412525.264 -19012668.872 -16375225.640 10 0 60387 81900.00000 0 5377218.270 -20634220.203 -13957655.983 10 0 60387 82800.00000 0 6060533.476 -22050454.582 -11268230.939 10 0 60387 83700.00000 0 6482913.599 -23204599.648 -8359532.271 10 0 60387 84600.00000 0 6675760.301 -24047332.978 -5288314.485 10 0 60387 85500.00000 0 6679828.007 -24538844.044 -2114382.122 10 0 60388 0.00000 0 6543231.910 -24650509.621 1100584.189 10 0 60388 900.00000 0 6319157.172 -24366114.300 4294230.731 10 0 60388 1800.00000 0 6063368.350 -23682567.329 7404734.606 10 0 60388 2700.00000 0 5831625.016 -22610088.664 10371991.109 10 0 60388 3600.00000 0 5677112.795 -21171858.856 13138758.137 10 0 60388 4500.00000 0 5647997.172 -19403149.809 15651738.693 10 0 60388 5400.00000 0 5785201.436 -17349974.271 17862582.326 10 0 60388 6300.00000 0 6120500.128 -15067311.080 19728788.669 10 0 60388 7200.00000 0 6675005.878 -12616979.765 21214498.277 10 0 60388 8100.00000 0 7458111.140 -10065251.583 22291158.254 10 0 60388 9000.00000 0 8466927.773 -7480293.944 22938052.282 10 0 60388 9900.00000 0 9686247.387 -4929551.381 23142686.841 10 0 60388 10800.00000 0 11089024.516 -2477168.284 22901027.576 10 0 60388 11700.00000 0 12637363.966 -181556.800 22217581.828 10 0 60388 12600.00000 0 14283973.464 1906792.378 21105325.500 10 0 60388 13500.00000 0 15974024.134 3747168.154 19585474.543 10 0 60388 14400.00000 0 17647344.639 5310090.721 17687103.632 10 0 60388 15300.00000 0 19240860.896 6578297.246 15446616.888 10 0 60388 16200.00000 0 20691182.562 7547220.383 12907078.025 10 0 60388 17100.00000 0 21937230.568 8224938.663 10117409.825 10 0 60388 18000.00000 0 22922797.067 8631599.169 7131475.546 10 0 60388 18900.00000 0 23598930.744 8798334.729 4007057.564 10 0 60388 19800.00000 0 23926046.396 8765719.070 804751.036 10 0 60388 20700.00000 0 23875668.066 8581823.284 -2413207.017 10 0 60388 21600.00000 0 23431729.434 8299954.468 -5584150.880 10 0 60388 22500.00000 0 22591373.209 7976171.810 -8646217.460 10 0 60388 23400.00000 0 21365212.118 7666685.830 -11539570.497 10 0 60388 24300.00000 0 19777036.967 7425252.504 -14207591.930 10 0 60388 25200.00000 0 17862981.017 7300675.032 -16598014.868 10 0 60388 26100.00000 0 15670173.688 7334522.088 -18663973.462 10 0 60388 27000.00000 0 13254938.907 7559162.492 -20364946.594 10 0 60388 27900.00000 0 10680613.583 7996202.796 -21667574.591 10 0 60388 28800.00000 0 8015078.423 8655396.835 -22546330.936 10 0 60388 29700.00000 0 5328106.028 9534075.693 -22984034.327 10 0 60388 30600.00000 0 2688639.108 10617123.714 -22972190.119 10 0 60388 31500.00000 0 162114.705 11877502.218 -22511154.086 10 0 60388 32400.00000 0 -2192052.027 13277298.557 -21610115.575 10 0 60388 33300.00000 0 -4322718.184 14769255.225 -20286901.161 10 0 60388 34200.00000 0 -6188903.215 16298712.875 -18567603.958 10 0 60388 35100.00000 0 -7761240.412 17805883.296 -16486047.522 10 0 60388 36000.00000 0 -9022930.827 19228354.430 -14083096.811 10 0 60388 36900.00000 0 -9970162.292 20503719.919 -11405831.867 10 0 60388 37800.00000 0 -10611979.551 21572220.882 -8506602.569 10 0 60388 38700.00000 0 -10969614.983 22379287.762 -5441985.044 10 0 60388 39600.00000 0 -11075312.278 22877875.121 -2271662.024 10 0 60388 40500.00000 0 -10970696.686 23030491.800 942749.463 10 0 60388 41400.00000 0 -10704764.061 22810842.500 4138899.231 10 0 60388 42300.00000 0 -10331576.230 22205013.843 7254909.980 10 0 60388 43200.00000 0 -9907761.644 21212157.528 10230565.059 10 0 60388 44100.00000 0 -9489927.347 19844644.436 13008455.728 10 0 60388 45000.00000 0 -9132090.927 18127685.470 15535067.190 10 0 60388 45900.00000 0 -8883239.260 16098436.744 17761784.422 10 0 60388 46800.00000 0 -8785114.748 13804627.379 19645800.868 10 0 60388 47700.00000 0 -8870319.695 11302767.123 21150915.088 10 0 60388 48600.00000 0 -9160816.041 8656007.313 22248202.741 10 0 60388 49500.00000 0 -9666881.346 5931742.094 22916553.419 10 0 60388 50400.00000 0 -10386563.408 3199046.633 23143064.024 10 0 60388 51300.00000 0 -11305655.944 526055.223 22923282.516 10 0 60388 52200.00000 0 -12398196.957 -2022615.667 22261297.984 10 0 60388 53100.00000 0 -13627470.567 -4388296.037 21169675.086 10 0 60388 54000.00000 0 -14947472.965 -6520445.053 19669233.070 10 0 60388 54900.00000 0 -16304784.312 -8378499.543 17788671.807 10 0 60388 55800.00000 0 -17640771.676 -9933312.862 15564049.621 10 0 60388 56700.00000 0 -18894034.102 -11168124.655 13038120.137 10 0 60388 57600.00000 0 -20002990.140 -12079020.565 10259537.934 10 0 60388 58500.00000 0 -20908501.235 -12674861.271 7281945.501 10 0 60388 59400.00000 0 -21556421.713 -12976681.975 4162956.585 10 0 60388 60300.00000 0 -21899967.786 -13016585.401 963053.690 10 0 60388 61200.00000 0 -21901804.354 -12836172.860 -2255580.099 10 0 60388 62100.00000 0 -21535759.127 -12484577.920 -5430272.666 10 0 60388 63000.00000 0 -20788088.462 -12016184.841 -8499093.804 10 0 60388 63900.00000 0 -19658237.724 -11488128.186 -11402080.310 10 0 60388 64800.00000 0 -18159060.282 -10957680.373 -14082429.523 10 0 60388 65700.00000 0 -16316482.338 -10479639.542 -16487635.726 10 0 60388 66600.00000 0 -14168624.811 -10103830.888 -18570544.630 10 0 60388 67500.00000 0 -11764417.232 -9872830.204 -20290302.805 10 0 60388 68400.00000 0 -9161760.808 -9820009.090 -21613181.096 10 0 60388 69300.00000 0 -6425317.798 -9967987.446 -22513253.880 10 0 60388 70200.00000 0 -3624020.675 -10327561.121 -22972919.324 10 0 60388 71100.00000 0 -828406.818 -10897151.720 -22983249.505 10 0 60388 72000.00000 0 1892107.913 -11662802.690 -22544163.093 10 0 60388 72900.00000 0 4471900.980 -12598721.732 -21664417.492 10 0 60388 73800.00000 0 6851647.275 -13668345.744 -20361421.302 10 0 60388 74700.00000 0 8980550.058 -14825881.665 -18660872.073 10 0 60388 75600.00000 0 10818205.584 -16018256.053 -16596228.091 10 0 60388 76500.00000 0 12336024.528 -17187388.746 -14208026.504 10 0 60388 77400.00000 0 13518152.773 -18272692.298 -11543063.307 10 0 60388 78300.00000 0 14361856.024 -19213689.741 -8653453.420 10 0 60388 79200.00000 0 14877355.806 -19952638.748 -5595591.368 10 0 60388 80100.00000 0 15087127.873 -20437050.782 -2429034.781 10 0 60388 81000.00000 0 15024696.686 -20621999.108 784665.942 10 0 60388 81900.00000 0 14732980.609 -20472119.269 3983167.943 10 0 60388 82800.00000 0 14262260.724 -19963219.404 7104542.303 10 0 60388 83700.00000 0 13667861.216 -19083434.725 10088463.241 10 0 60388 84600.00000 0 13007640.303 -17833879.966 12877357.898 10 0 60388 85500.00000 0 12339397.543 -16228774.656 15417495.837 10 0 60389 0.00000 0 11718305.795 -14295037.995 17659999.057 10 0 60389 900.00000 0 11194473.727 -12071370.345 19561756.587 10 0 60389 1800.00000 0 10810739.746 -9606862.588 21086225.744 10 0 60389 2700.00000 0 10600786.195 -6959187.161 22204111.313 10 0 60389 3600.00000 0 10587651.238 -4192446.768 22893908.993 10 0 60389 4500.00000 0 10782698.404 -1374766.579 23142305.944 10 0 60389 5400.00000 0 11185085.719 1424273.325 22944431.963 10 0 60389 6300.00000 0 11781756.335 4136262.487 22303957.127 10 0 60389 7200.00000 0 12547951.795 6696536.464 21233033.851 10 0 60389 8100.00000 0 13448228.171 9046601.675 19752083.469 10 0 60389 9000.00000 0 14437935.105 11136310.918 17889429.669 10 0 60389 9900.00000 0 15465098.849 12925701.079 15680783.418 10 0 60389 10800.00000 0 16472633.564 14386417.537 13168586.532 10 0 60389 11700.00000 0 17400791.092 15502665.823 10401223.500 10 0 60389 12600.00000 0 18189748.604 16271649.744 7432113.961 10 0 60389 13500.00000 0 18782226.744 16703475.918 4318700.795 10 0 60389 14400.00000 0 19126028.336 16820526.560 1121351.440 10 0 60389 15300.00000 0 19176389.731 16656324.619 -2097807.479 10 0 60389 16200.00000 0 18898043.579 16253937.068 -5276100.035 10 0 60389 17100.00000 0 18266902.962 15663982.254 -8351531.481 10 0 60389 18000.00000 0 17271292.114 14942324.809 -11264014.161 10 0 60389 18900.00000 0 15912667.823 14147555.839 -13956563.147 10 0 60389 19800.00000 0 14205797.168 13338366.132 -16376436.036 10 0 60389 20700.00000 0 12178380.646 12570925.511 -18476192.031 10 0 60389 21600.00000 0 9870133.847 11896381.767 -20214647.092 10 0 60389 22500.00000 0 7331364.479 11358587.791 -21557704.077 10 0 60389 23400.00000 0 4621103.780 10992155.852 -22479039.533 10 0 60389 24300.00000 0 1804870.839 10820923.703 -22960632.155 10 0 60389 25200.00000 0 -1047835.522 10856899.157 -22993121.525 10 0 60389 26100.00000 0 -3866210.791 11099728.733 -22575989.683 10 0 60389 27000.00000 0 -6580871.182 11536712.883 -21717562.183 10 0 60389 27900.00000 0 -9126516.860 12143366.371 -20434829.333 10 0 60389 28800.00000 0 -11444419.441 12884498.477 -18753092.358 10 0 60389 29700.00000 0 -13484629.372 13715765.206 -16705443.108 10 0 60389 30600.00000 0 -15207811.306 14585625.311 -14332089.385 10 0 60389 31500.00000 0 -16586632.082 15437614.831 -11679541.299 10 0 60389 32400.00000 0 -17606645.559 16212841.561 -8799676.754 10 0 60389 33300.00000 0 -18266640.443 16852592.041 -5748706.447 10 0 60389 34200.00000 0 -18578440.269 17300939.594 -2586060.569 10 0 60389 35100.00000 0 -18566168.040 17507242.731 626779.513 10 0 60389 36000.00000 0 -18265010.416 17428428.748 3827480.741 10 0 60389 36900.00000 0 -17719537.037 17030967.263 6954065.087 10 0 60389 37800.00000 0 -16981648.521 16292452.256 9946100.195 10 0 60389 38700.00000 0 -16108241.360 15202728.092 12745851.652 10 0 60389 39600.00000 0 -15158688.689 13764514.376 15299375.937 10 0 60389 40500.00000 0 -14192242.507 11993505.370 17557534.931 10 0 60389 41400.00000 0 -13265465.058 9917941.190 19476914.837 10 0 60389 42300.00000 0 -12429795.047 7577669.337 21020634.388 10 0 60389 43200.00000 0 -11729348.058 5022735.341 22159029.517 10 0 60389 44100.00000 0 -11199040.495 2311559.872 22870203.797 10 0 60389 45000.00000 0 -10863113.037 -491224.219 23140436.118 10 0 60389 45900.00000 0 -10734113.349 -3317188.193 22964439.249 10 0 60389 46800.00000 0 -10812379.409 -6096680.451 22345465.022 10 0 60389 47700.00000 0 -11086044.903 -8761453.399 21295253.981 10 0 60389 48600.00000 0 -11531567.264 -11247238.877 19833829.497 10 0 60389 49500.00000 0 -12114758.067 -13496168.514 17989138.585 10 0 60389 50400.00000 0 -12792275.081 -15458940.843 15796543.935 10 0 60389 51300.00000 0 -13513516.297 -17096646.511 13298174.203 10 0 60389 52200.00000 0 -14222839.362 -18382175.920 10542142.038 10 0 60389 53100.00000 0 -14862015.634 -19301149.894 7581642.116 10 0 60389 54000.00000 0 -15372817.437 -19852332.893 4473944.006 10 0 60389 54900.00000 0 -15699630.331 -20047509.381 1279297.354 10 0 60389 55800.00000 0 -15791979.887 -19910826.052 -1940230.662 10 0 60389 56700.00000 0 -15606864.842 -19477625.268 -5121963.510 10 0 60389 57600.00000 0 -15110795.503 -18792816.884 -8203845.299 10 0 60389 58500.00000 0 -14281447.918 -17908855.882 -11125667.447 10 0 60389 59400.00000 0 -13108860.011 -16883410.798 -13830266.361 10 0 60389 60300.00000 0 -11596115.124 -15776821.950 -16264666.505 10 0 60389 61200.00000 0 -9759480.296 -14649458.309 -18381143.969 10 0 60389 62100.00000 0 -7627990.178 -13559086.773 -20138187.211 10 0 60389 63000.00000 0 -5242491.634 -12558367.564 -21501333.779 10 0 60389 63900.00000 0 -2654187.717 -11692584.191 -22443864.549 10 0 60389 64800.00000 0 77258.335 -10997706.278 -22947340.286 10 0 60389 65700.00000 0 2885979.219 -10498868.990 -23001968.999 10 0 60389 66600.00000 0 5702424.103 -10209334.407 -22606796.399 10 0 60389 67500.00000 0 8456036.589 -10129978.984 -21769715.914 10 0 60389 68400.00000 0 11077976.396 -10249328.044 -20507298.750 10 0 60389 69300.00000 0 13503769.477 -10544134.333 -18844448.532 10 0 60389 70200.00000 0 15675774.809 -10980473.902 -16813888.929 10 0 60389 71100.00000 0 17545364.482 -11515310.245 -14455496.231 10 0 60389 72000.00000 0 19074726.561 -12098457.590 -11815492.078 10 0 60389 72900.00000 0 20238216.901 -12674857.405 -8945514.382 10 0 60389 73800.00000 0 21023205.841 -13187069.292 -5901586.704 10 0 60389 74700.00000 0 21430387.557 -13577868.955 -2743008.236 10 0 60389 75600.00000 0 21473542.897 -13792842.228 468812.411 10 0 60389 76500.00000 0 21178769.547 -13782865.170 3671555.715 10 0 60389 77400.00000 0 20583215.641 -13506366.028 6803198.173 10 0 60389 78300.00000 0 19733373.187 -12931274.875 9803204.261 10 0 60389 79200.00000 0 18683005.403 -12036580.541 12613681.076 10 0 60389 80100.00000 0 17490796.347 -10813431.383 15180474.677 10 0 60389 81000.00000 0 16217821.735 -9265735.641 17454188.865 10 0 60389 81900.00000 0 14924946.136 -7410237.803 19391109.174 10 0 60389 82800.00000 0 13670253.809 -5276068.775 20954016.841 10 0 60389 83700.00000 0 12506618.221 -2903788.689 22112879.811 10 0 60389 84600.00000 0 11479508.982 -343961.360 22845409.978 10 0 60389 85500.00000 0 10625124.991 2344682.176 23137478.010 99